POPACS 1

Last updated on Wed Oct 22 2025 00:03:48 GMT+0000 (Coordinated Universal Time)

1 39268U 13055D 25294.38174635 .00125419 35043-5 68490-3 0 9993 2 39268 80.9601 279.3782 0164771 233.7599 124.8333 15.62796027635357
UTC large
Height (km)
Speed (km/s)
/
Latitude / Longitude
Inclination (degrees)
Orbital Period (minutes)
Azimuth
Elevation
Range (km)
Doppler Factor

Next 0 passes for location: London (51.5072 / 0.1276)

Sorry there are no passes over London.